Location: Ellerstadt
(49.4644°N, 8.2615°E)
Time: 20:19:41
(UTC+00:00)

Vanguard 1 - Pass Details

Date: 16 June 2021
Orbit: 651 x 3831 km, 34.2° (Epoch: 29 July)

Event Time Altitude Azimuth Distance (km) Brightness Sun altitude
Rises 20:45:35 0° 222° (SW) 7,962 14.6 -8.7°
Reaches altitude 10° 20:51:53 10° 215° (SW) 6,891 14.2 -9.3°
Maximum altitude 21:10:26 36° 160° (SSE) 4,280 12.8 -11.0°
Drops below altitude 10° 21:23:21 10° 101° (E) 4,863 13.2 -12.1°
Sets 21:26:50 0° 93° (E) 5,476 13.6 -12.3°
